Terug naar catalogus

STARLINK-34480

ActiefCommunicatieVLEO
NORAD 64427·PAYLOAD·🇺🇸 United States

Gelanceerd Jun 17, 2025 vanaf Vandenberg Space Force Base

Loading…

Volgende Passages (komende 24 uur)

TLE

VersSource: CelesTrak SupGP

Epoch: Sep 15, 2026, 02:49 UTC

1 64427C 25129R   26258.11784722  .00050779  00000+0  17665-2 0  2589
2 64427  69.9998 315.1226 0003244 268.3961 132.3844 15.29551950    11

Volg STARLINK-34480 in realtime met AllMySat

Download on the App Store